Погода в Мидделбурге

Нидерланды     51°29′48″N   3°37′00″E
темп.,
°C
ветер,
м/с
пор.,
м/с
влажн.,
%
обл.,
%
осадки,
мм/ч
давл.,
гПа
погр.,
м
28 октября, чт
чт2823:00+13ююз713825 0.0 1019417
02:00+12ю7128358 0.0 1018361
05:00+12ю813845 0.0 1017350
08:00+11ю814835 0.0 1016353
11:00+12ю813740 0.0 1015399
14:00+15ю811634 0.0 1013582
17:00+16ю711620 0.0 1011480
20:00+14ю715710 0.0 1010647
29 октября, пт
пт2923:00+13ю917710 0.0 1009523
02:00+13ю917710 0.0 1007493
05:00+13ю1017750 0.0 1006484
08:00+13ю1017765 0.0 1005495
11:00+14ю11187198 0.0 1004658
14:00+15ююз111569100 0.0 1004987
17:00+14ююз111582100 0.3 10041110
20:00+13ююз91386100 2.6 1005806
30 октября, сб
сб3023:00+13ююз81288100 0.2 1005617
02:00+12ю7108899 0.2 1005579
05:00+12ю81187100 0.0 1005509
08:00+12ююв81289100 0.0 1004502
11:00+13ююв91486100 0.0 1003559
14:00+14ююв91386100 0.7 1001658
17:00+14ююв111690100 1.3 10001097
20:00+13ю121790100 3.4 1000805
31 октября, вс
вс3123:00+14зюз91186100 1.3 1001804
02:00+14зюз6981100 1.5 1003770
04:00+12ююз5680100 0.0 1004370
07:00+11ю71091100 0.0 1003362
10:00+12ю81389100 0.0 1002568
13:00+14ю91582100 0.0 999791
16:00+13юз61191100 12.1 996658
19:00+14юз101490100 21.1 9941116
31 октября, вс
вс3122:00+13зюз9127790 1.3 9971106
01:00+12зюз810797 1.7 996909
04:00+12зюз810640 0.1 9961163
07:00+10ююз91288100 0.5 996523
10:00+11юз101479100 4.8 9971184
13:00+13юз1317715 6.3 9981870
16:00+13зюз1417706 1.1 9991690
19:00+13зюз13157049 1.4 10011660